This is the latest recevied weather packets stored in our database for station/object R1ZCU-14. If no packets are shown the sender has not sent any weather packets the latest 10 day(s).
| Time | Temp. | Humidity | Pressure | Rain* | Wind** | Luminosity | Snow |
|---|---|---|---|---|---|---|---|
| 1788010520 | 20.56° C | 53% | 1012.6 hPa | - | - | - | - |
| 1788009920 | 20.56° C | 52% | 1012.5 hPa | - | - | - | - |
| 1788009319 | 20.56° C | 52% | 1012.5 hPa | - | - | - | - |
| 1788008718 | 20.56° C | 52% | 1012.6 hPa | - | - | - | - |
| 1788008118 | 20.56° C | 54% | 1012.7 hPa | - | - | - | - |
| 1788007518 | 20.56° C | 53% | 1012.7 hPa | - | - | - | - |
| 1788006917 | 20° C | 53% | 1012.7 hPa | - | - | - | - |
| 1788006317 | 20° C | 55% | 1012.8 hPa | - | - | - | - |
| 1788005716 | 19.44° C | 58% | 1012.9 hPa | - | - | - | - |
| 1788005116 | 20° C | 57% | 1013 hPa | - | - | - | - |
| 1788004515 | 19.44° C | 60% | 1013 hPa | - | - | - | - |
| 1788003915 | 19.44° C | 57% | 1013.3 hPa | - | - | - | - |
| 1788003314 | 19.44° C | 57% | 1013.3 hPa | - | - | - | - |
| 1788002714 | 19.44° C | 58% | 1013.3 hPa | - | - | - | - |
| 1788002113 | 20° C | 56% | 1013.4 hPa | - | - | - | - |
| 1788001513 | 19.44° C | 56% | 1013.5 hPa | - | - | - | - |
| 1788000912 | 20° C | 55% | 1013.5 hPa | - | - | - | - |
| 1788000312 | 20° C | 55% | 1013.5 hPa | - | - | - | - |
| 1787999711 | 19.44° C | 54% | 1013.5 hPa | - | - | - | - |
| 1787999111 | 19.44° C | 54% | 1013.6 hPa | - | - | - | - |
| 1787998510 | 20° C | 55% | 1013.6 hPa | - | - | - | - |
| 1787997910 | 20° C | 54% | 1013.6 hPa | - | - | - | - |
| 1787997309 | 21.11° C | 51% | 1013.6 hPa | - | - | - | - |
| 1787996709 | 22.78° C | 46% | 1013.7 hPa | - | - | - | - |
| 1787996108 | 28.89° C | 31% | 1013.3 hPa | - | - | - | - |
* Rain since midnight (hover to see other rain measurements)
** Current wind speed in m/s (hover to see current wind gust speed)